Location: Black Swamp Observatory
(41.3920°N, 84.1250°W)
Time: 17:12:27
(UTC-04:00)

Amateur Radio Satellites - All Passes

Search period start: 30 June 2016 16:42
Search period end: 01 July 2016 16:42
Location: Black Swamp Observatory, 41.3920°N, 84.1250°W

Satellite Date Start Highest point End Downlink Frequencies (MHz)
Time Altitude Azimuth
KKS-1 30 Jun 16:44:11 16:47:52 25° 95° (E) 16:51:32 437.445
SO-50 30 Jun 16:45:46 16:50:39 65° 305° (NW) 16:55:31 436.795
MOZHAYETS 4 30 Jun 16:50:02 16:54:02 28° 95° (E) 16:57:59
HORYU 2 30 Jun 17:07:13 17:11:20 39° 70° (ENE) 17:15:28 437.375
STARS 30 Jun 17:10:25 17:14:00 24° 95° (E) 17:17:34 437.465
Cosmos 2504 30 Jun 17:10:52 17:16:14 18° 300° (WNW) 17:21:48 435.465 / 435.565
RS-15 30 Jun 17:15:50 17:24:50 23° 360° (N) 17:33:59 29.354- 29.394
NOAA 18 30 Jun 17:16:27 17:17:59 11° 55° (NE) 17:19:31 137.9125
GONETS M04 30 Jun 17:34:41 17:39:41 17° 76° (ENE) 17:44:39
CUTE-I 30 Jun 17:36:14 17:39:06 15° 59° (ENE) 17:41:57 437.470
SWISSCUBE 30 Jun 17:45:26 17:46:37 11° 301° (WNW) 17:47:50 437.505
Cosmos 2499 30 Jun 17:55:03 17:59:16 15° 74° (ENE) 18:03:35 435.465 / 435.565
NOAA 15 30 Jun 17:55:12 17:59:42 29° 66° (ENE) 18:04:11 137.62
AIST 1 30 Jun 18:02:29 18:06:48 71° 279° (W) 18:11:06
BRITE-PL 30 Jun 18:20:24 18:25:04 42° 72° (ENE) 18:29:25 437.365/2234.400
KKS-1 30 Jun 18:20:31 18:24:26 30° 291° (WNW) 18:28:20 437.445
CUBESAT XI-V 30 Jun 18:23:32 18:27:39 31° 96° (E) 18:31:44 437.345
MOZHAYETS 4 30 Jun 18:27:08 18:31:09 29° 292° (WNW) 18:35:07
AO-7 30 Jun 18:27:46 18:32:25 16° 271° (W) 18:37:06 29.400- 29.500
SO-50 30 Jun 18:29:52 18:32:04 13° 325° (NW) 18:34:15 436.795
DANDE 30 Jun 18:34:18 18:35:29 11° 57° (ENE) 18:36:36 436.750
Cubesat XI-IV 30 Jun 18:39:40 18:44:50 52° 71° (ENE) 18:50:03 437.490
GOMX 1 30 Jun 18:43:09 18:47:06 31° 71° (ENE) 18:50:54 467.674
LilacSat-2 30 Jun 18:44:32 18:48:09 45° 74° (ENE) 18:51:49 437.200
HORYU 2 30 Jun 18:44:51 18:48:02 19° 267° (W) 18:51:14 437.375
STARS 30 Jun 18:46:29 18:50:22 31° 291° (WNW) 18:54:15 437.465
NOAA 18 30 Jun 18:52:14 18:57:41 76° 73° (ENE) 19:03:12 137.9125
CUTE-I 30 Jun 19:13:05 19:18:26 80° 256° (WSW) 19:23:51 437.470
HO-68 30 Jun 19:22:20 19:27:51 25° 58° (ENE) 19:33:24 435.675
GONETS M04 30 Jun 19:26:25 19:35:08 87° 97° (E) 19:43:53
CUSAT 1 30 Jun 19:30:50 19:34:13 55° 265° (W) 19:36:59 437.405
RS-15 30 Jun 19:31:19 19:42:24 37° 34° (NE) 19:53:29 29.354- 29.394
DOVE 4 30 Jun 19:31:39 19:35:42 44° 73° (ENE) 19:39:40 437.250
NOAA 15 30 Jun 19:34:28 19:39:19 36° 262° (W) 19:44:12 137.62
Cosmos 2499 30 Jun 19:42:26 19:50:46 78° 94° (E) 19:59:37 435.465 / 435.565
BRITE-PL 30 Jun 20:00:02 20:03:40 20° 266° (W) 20:07:09 437.365/2234.400
CUBESAT XI-V 30 Jun 20:01:06 20:04:54 26° 293° (WNW) 20:08:41 437.345
CINEMA 3 30 Jun 20:10:35 20:14:16 32° 70° (ENE) 20:18:00 145.822/145.860
DANDE 30 Jun 20:14:42 20:19:17 56° 266° (W) 20:22:43 436.750
COMPASS 1 30 Jun 20:18:16 20:21:11 19° 66° (ENE) 20:24:08 437.405
LilacSat-2 30 Jun 20:21:15 20:22:43 12° 269° (W) 20:24:12 437.200
Cubesat XI-IV 30 Jun 20:21:18 20:25:11 20° 267° (W) 20:29:07 437.490
GOMX 1 30 Jun 20:21:33 20:25:13 24° 265° (W) 20:28:44 467.674
CANX-2 30 Jun 20:24:19 20:28:25 48° 73° (ENE) 20:32:35 2200.000
NOAA 18 30 Jun 20:36:09 20:38:55 14° 270° (W) 20:41:43 137.9125
UWE-3 30 Jun 20:36:12 20:38:20 14° 63° (ENE) 20:40:29 435.000/436.395/437.385
AO-85 30 Jun 20:38:35 20:41:52 16° 108° (ESE) 20:45:06 145.980
STRAND 1 30 Jun 20:39:34 20:44:37 53° 100° (E) 20:49:37 437.568
SEEDS 30 Jun 20:43:29 20:47:35 48° 73° (ENE) 20:51:42 437.485
AUBIESAT-1 30 Jun 20:43:39 20:45:31 14° 60° (ENE) 20:47:24 437.475
CUTE 1.7 + AOD 2 30 Jun 20:43:42 20:47:57 69° 75° (ENE) 20:52:15 437.475
HO-68 30 Jun 21:07:50 21:14:56 68° 256° (WSW) 21:22:07 435.675
DOVE 4 30 Jun 21:11:11 21:13:38 15° 268° (W) 21:16:04 437.250
AAUSAT CUBESAT 2 30 Jun 21:15:43 21:19:51 63° 75° (ENE) 21:24:01 437.432
M-CUBED/EXP-1 PRIME 30 Jun 21:23:35 21:26:47 58° 69° (ENE) 21:30:02 437.505
GONETS M04 30 Jun 21:27:11 21:33:10 20° 298° (WNW) 21:39:11
CUBEBUG 2 30 Jun 21:27:50 21:31:59 72° 75° (ENE) 21:36:16 437.445
Cosmos 2499 30 Jun 21:38:21 21:44:54 24° 296° (WNW) 21:51:43 435.465 / 435.565
ZACube-1 30 Jun 21:43:38 21:47:41 47° 72° (ENE) 21:51:51 437.345
RS-15 30 Jun 21:44:06 21:56:30 85° 240° (WSW) 22:08:45 29.354- 29.394
CINEMA 3 30 Jun 21:48:29 21:51:30 20° 267° (W) 21:54:34 145.822/145.860
Oscar 11 30 Jun 21:48:36 21:52:52 59° 74° (ENE) 21:57:10 145.826/435.025
COMPASS 1 30 Jun 21:52:32 21:56:28 38° 262° (W) 22:00:26 437.405
PRISM 30 Jun 21:59:03 22:03:02 52° 101° (E) 22:07:00 437.425
FUNcube-1 30 Jun 21:59:41 22:03:52 68° 75° (ENE) 22:08:10 145.935
CANX-2 30 Jun 22:02:06 22:04:32 15° 269° (W) 22:07:00 2200.000
UWE-3 30 Jun 22:10:10 22:14:17 55° 260° (W) 22:18:32 435.000/436.395/437.385
AO-85 30 Jun 22:16:24 22:21:50 74° 304° (NW) 22:27:05 145.980
AUBIESAT-1 30 Jun 22:16:51 22:19:47 30° 257° (WSW) 22:22:47 437.475
STRAND 1 30 Jun 22:19:42 22:23:22 20° 297° (WNW) 22:27:02 437.568
SEEDS 30 Jun 22:21:14 22:23:33 14° 269° (W) 22:25:53 437.485
CUTE 1.7 + AOD 2 30 Jun 22:23:56 22:24:15 10° 271° (W) 22:24:33 437.475
HUMSAT D 30 Jun 22:35:31 22:39:26 40° 72° (ENE) 22:43:25 437.325/437.525
ANTELSAT 30 Jun 22:38:14 22:39:07 10° 89° (E) 22:40:00 437.575/2403.000
DELFI C3 30 Jun 22:42:13 22:46:15 75° 258° (WSW) 22:50:18 145.870
AAUSAT CUBESAT 2 30 Jun 22:54:45 22:55:44 11° 271° (W) 22:56:44 437.432
HO-68 30 Jun 23:03:10 23:03:53 10° 274° (W) 23:04:36 435.675
AISAT 30 Jun 23:03:23 23:04:13 10° 60° (ENE) 23:05:04 437.250
ESTCUBE 1 30 Jun 23:06:59 23:10:05 18° 65° (ENE) 23:13:11 437.505/2401.250
DX 1 30 Jun 23:14:53 23:15:25 10° 60° (ENE) 23:15:56 434.975-435.025
ZACube-1 30 Jun 23:21:53 23:24:16 15° 269° (W) 23:26:41 437.345
TIGRISAT 30 Jun 23:26:14 23:30:28 33° 97° (E) 23:34:42 435.000
Oscar 11 30 Jun 23:27:35 23:29:23 12° 270° (W) 23:31:10 145.826/435.025
UNISAT 6 30 Jun 23:32:05 23:36:31 40° 98° (E) 23:40:56 437.425
PRISM 30 Jun 23:35:53 23:37:54 13° 297° (WNW) 23:39:54 437.425
SO-50 30 Jun 23:37:52 23:41:04 18° 40° (NE) 23:44:11 436.795
YUBILEINY 30 Jun 23:38:46 23:46:38 34° 70° (ENE) 23:54:27 435.215
FUNcube-1 30 Jun 23:40:20 23:40:37 10° 272° (W) 23:40:54 145.935
CUBEBUG 1 30 Jun 23:40:38 23:44:14 26° 68° (ENE) 23:47:51 437.445
VELOX 1 30 Jun 23:54:57 23:58:56 34° 70° (ENE) 00:02:56 145.980
RS-15 30 Jun 23:58:41 00:07:10 23° 261° (W) 00:15:38 29.354- 29.394
AO-85 01 Jul 00:00:04 00:03:09 15° 322° (NW) 00:06:11 145.980
ANTELSAT 01 Jul 00:11:39 00:16:19 79° 286° (WNW) 00:21:02 437.575/2403.000
HUMSAT D 01 Jul 00:12:30 00:15:14 17° 268° (W) 00:18:00 437.325/437.525
50 SAT 01 Jul 00:17:01 00:20:41 64° 76° (ENE) 00:24:24 437.505
SPROUT 01 Jul 00:19:19 00:22:51 26° 69° (ENE) 00:26:26 437.525
UKube-1 01 Jul 00:22:08 00:26:12 42° 71° (ENE) 00:30:17 .
AISAT 01 Jul 00:35:38 00:40:02 81° 256° (WSW) 00:44:27 437.250
ESTCUBE 1 01 Jul 00:42:11 00:46:32 45° 261° (W) 00:50:54 437.505/2401.250
DX 1 01 Jul 00:46:36 00:50:57 82° 258° (WSW) 00:55:18 434.975-435.025
NANOSAT C BR1 01 Jul 00:48:20 00:52:21 40° 98° (E) 00:56:22 145.865
Cosmos 2491 01 Jul 00:49:20 00:57:32 46° 88° (E) 01:05:42 435.465 / 435.565
QB50P1 01 Jul 00:52:46 00:56:54 48° 99° (E) 01:01:01 145.935-145.965
POPSAT HIP 1 01 Jul 00:56:12 01:00:23 52° 100° (E) 01:04:33 437.405
TIGRISAT 01 Jul 01:03:09 01:06:59 26° 292° (WNW) 01:10:50 435.000
Cosmos 2504 01 Jul 01:06:06 01:14:18 39° 72° (ENE) 01:22:06 435.465 / 435.565
DUCHIFAT 1 01 Jul 01:07:30 01:11:43 64° 101° (E) 01:15:56 145.980
QB50P2 01 Jul 01:09:08 01:13:26 80° 105° (ESE) 01:17:42 145.880/145.840
UNISAT 6 01 Jul 01:09:25 01:12:57 22° 294° (WNW) 01:16:29 437.425
POLYITAN 1 01 Jul 01:11:46 01:16:04 82° 103° (ESE) 01:20:22 437.675
CUBEBUG 1 01 Jul 01:16:41 01:20:26 28° 264° (W) 01:24:11 437.445
SO-50 01 Jul 01:17:25 01:22:05 72° 239° (WSW) 01:26:33 436.795
TISAT 1 01 Jul 01:29:41 01:33:34 40° 71° (ENE) 01:37:28 437.305
VELOX 1 01 Jul 01:32:05 01:35:28 21° 266° (W) 01:38:52 145.980
YUBILEINY 01 Jul 01:35:15 01:43:45 54° 270° (W) 01:52:14 435.215
SWISSCUBE 01 Jul 01:36:41 01:38:42 13° 60° (ENE) 01:40:43 437.505
BEESAT 3 01 Jul 01:43:39 01:45:12 12° 109° (ESE) 01:46:45 437.485
BUGSAT 1 01 Jul 01:52:38 01:56:45 87° 288° (WNW) 02:00:55 437.445
JAS-2 01 Jul 01:53:48 01:59:04 43° 98° (E) 02:04:00 435.910
SPROUT 01 Jul 01:55:10 01:58:44 26° 265° (W) 02:02:20 437.525
UKube-1 01 Jul 01:59:38 02:02:26 17° 267° (W) 02:05:16 .
BEESAT 01 Jul 02:00:06 02:03:27 19° 64° (ENE) 02:06:49 436.000
ITUPSAT 1 01 Jul 02:02:46 02:06:14 20° 64° (ENE) 02:09:43 437.325
PCSat 01 Jul 02:09:38 02:14:46 45° 112° (ESE) 02:19:56 145.827
Oscar 19 01 Jul 02:22:22 02:26:48 29° 96° (E) 02:31:12 437.125/150
NANOSAT C BR1 01 Jul 02:24:54 02:27:47 18° 295° (WNW) 02:30:40 145.865
BEESAT 2 01 Jul 02:25:18 02:28:09 19° 112° (ESE) 02:31:02 435.950
QB50P1 01 Jul 02:29:44 02:32:16 16° 296° (WNW) 02:34:50 145.935-145.965
POPSAT HIP 1 01 Jul 02:33:22 02:35:44 15° 296° (WNW) 02:38:07 437.405
DUCHIFAT 1 01 Jul 02:45:10 02:46:53 12° 298° (WNW) 02:48:36 145.980
Cosmos 2491 01 Jul 02:46:24 02:54:26 39° 288° (WNW) 03:02:30 435.465 / 435.565
QB50P2 01 Jul 02:48:19 02:48:36 10° 299° (WNW) 02:48:51 145.880/145.840
Cosmos 2504 01 Jul 02:59:27 03:07:49 48° 272° (W) 03:15:46 435.465 / 435.565
Gurwin Techsat 1B 01 Jul 03:00:24 03:05:01 29° 95° (E) 03:09:36 435.225
TISAT 1 01 Jul 03:06:43 03:09:23 17° 267° (W) 03:12:05 437.305
O/OREOS (USA 219) 01 Jul 03:09:57 03:14:26 72° 110° (ESE) 03:18:54 437.305
SWISSCUBE 01 Jul 03:11:02 03:15:49 79° 256° (WSW) 03:20:39 437.505
BEESAT 3 01 Jul 03:18:31 03:22:23 57° 306° (NW) 03:26:17 437.485
BEESAT 01 Jul 03:36:15 03:40:52 48° 261° (W) 03:45:31 436.000
ITUPSAT 1 01 Jul 03:39:07 03:43:43 46° 261° (W) 03:48:23 437.325
JAS-2 01 Jul 03:39:33 03:43:52 23° 298° (WNW) 03:47:57 435.910
KKS-1 01 Jul 03:42:30 03:46:01 24° 67° (ENE) 03:49:34 437.445
MOZHAYETS 4 01 Jul 03:51:58 03:55:52 27° 68° (ENE) 03:59:47
PCSat 01 Jul 03:53:41 03:58:20 28° 311° (NW) 04:03:02 145.827
Oscar 19 01 Jul 04:01:32 04:06:07 34° 292° (WNW) 04:10:41 437.125/150
BEESAT 2 01 Jul 04:02:02 04:05:44 37° 308° (NW) 04:09:28 435.950
STARS 01 Jul 04:07:24 04:10:45 22° 66° (ENE) 04:14:07 437.465
AIST 1 01 Jul 04:09:45 04:13:22 26° 75° (ENE) 04:16:58
ITAMSAT 1 01 Jul 04:29:28 04:34:42 70° 102° (ESE) 04:39:54 435.822/435.867
AO-7 01 Jul 04:32:11 04:39:36 34° 97° (E) 04:46:56 29.400- 29.500
Gurwin Techsat 1B 01 Jul 04:40:09 04:44:59 36° 292° (WNW) 04:49:47 435.225
O/OREOS (USA 219) 01 Jul 04:52:13 04:54:22 13° 308° (NW) 04:56:30 437.305
AIST 2 01 Jul 05:06:35 05:10:36 56° 118° (ESE) 05:14:40 435.215
AO-85 01 Jul 05:09:38 05:12:19 15° 37° (NE) 05:14:51 145.980
KKS-1 01 Jul 05:18:29 05:22:26 32° 263° (W) 05:26:25 437.445
CUBESAT XI-V 01 Jul 05:26:45 05:30:55 32° 69° (ENE) 05:35:03 437.345
MOZHAYETS 4 01 Jul 05:28:52 05:32:55 30° 264° (W) 05:37:02
Cosmos 2499 01 Jul 05:34:37 05:42:02 30° 67° (ENE) 05:49:03 435.465 / 435.565
GONETS M04 01 Jul 05:36:45 05:45:01 44° 74° (ENE) 05:53:15
STARS 01 Jul 05:42:57 05:46:55 34° 263° (W) 05:50:54 437.465
AIST 1 01 Jul 05:47:25 05:50:51 24° 271° (W) 05:54:15
PHONESAT 2.4 01 Jul 06:03:25 06:05:33 17° 152° (SSE) 06:07:40 2401.200-2431.200
ITAMSAT 1 01 Jul 06:10:27 06:13:35 16° 300° (WNW) 06:16:41 435.822/435.867
STRAND 1 01 Jul 06:21:36 06:22:12 10° 57° (ENE) 06:22:48 437.568
AO-7 01 Jul 06:24:32 06:32:39 56° 295° (WNW) 06:40:43 29.400- 29.500
BRITE-PL 01 Jul 06:27:33 06:28:10 10° 90° (E) 06:28:47 437.365/2234.400
HORYU 2 01 Jul 06:33:59 06:38:31 79° 103° (ESE) 06:43:00 437.375
AIST 2 01 Jul 06:46:38 06:49:26 17° 317° (NW) 06:52:14 435.215
AO-85 01 Jul 06:48:57 06:53:28 83° 241° (WSW) 06:57:35 145.980
CUSAT 1 01 Jul 06:49:42 06:55:01 21° 88° (E) 06:59:44 437.405
Cubesat XI-IV 01 Jul 06:57:37 07:01:35 20° 93° (E) 07:05:30 437.490
CUBESAT XI-V 01 Jul 07:04:20 07:08:17 26° 265° (W) 07:12:13 437.345
NOAA 18 01 Jul 07:14:32 07:19:28 31° 97° (E) 07:24:21 137.9125
Cosmos 2499 01 Jul 07:27:11 07:35:46 62° 268° (W) 07:43:46 435.465 / 435.565
CUTE-I 01 Jul 07:30:14 07:35:19 41° 98° (E) 07:40:21 437.470
DOVE 4 01 Jul 07:31:31 07:33:12 12° 91° (E) 07:34:53 437.250
ISS 01 Jul 07:33:21 07:35:04 14° 130° (SE) 07:36:47 145.825
GONETS M04 01 Jul 07:33:47 07:41:43 41° 273° (W) 07:49:41
DANDE 01 Jul 07:36:59 07:43:46 29° 87° (E) 07:50:01 436.750
PHONESAT 2.4 01 Jul 07:38:46 07:41:47 55° 168° (SSE) 07:44:48 2401.200-2431.200
NOAA 15 01 Jul 07:48:54 07:54:11 83° 104° (ESE) 07:59:26 137.62
LilacSat-2 01 Jul 07:51:43 07:55:37 72° 101° (ESE) 07:59:29 437.200
STRAND 1 01 Jul 07:55:20 08:00:27 76° 74° (ENE) 08:05:38 437.568
BRITE-PL 01 Jul 08:02:59 08:07:05 61° 285° (WNW) 08:11:15 437.365/2234.400
HORYU 2 01 Jul 08:13:01 08:14:25 11° 300° (WNW) 08:15:48 437.375
AO-7 01 Jul 08:20:06 08:23:35 13° 317° (NW) 08:27:05 29.400- 29.500
GOMX 1 01 Jul 08:21:28 08:25:43 89° 283° (WNW) 08:30:11 467.674
CUSAT 1 01 Jul 08:29:08 08:36:46 71° 281° (W) 08:43:01 437.405
CUTE 1.7 + AOD 2 01 Jul 08:30:40 08:32:18 12° 90° (E) 08:33:55 437.475
HO-68 01 Jul 08:36:19 08:41:54 24° 93° (E) 08:47:26 435.675
Cubesat XI-IV 01 Jul 08:36:43 08:41:55 52° 289° (WNW) 08:47:07 437.490
PRISM 01 Jul 08:48:22 08:52:12 38° 71° (ENE) 08:56:03 437.425
NOAA 18 01 Jul 08:55:05 09:00:06 36° 293° (WNW) 09:05:07 137.9125
DOVE 4 01 Jul 09:06:54 09:11:14 64° 285° (WNW) 09:15:49 437.250
ISS 01 Jul 09:07:54 09:11:08 68° 325° (NW) 09:14:24 145.825
CUTE-I 01 Jul 09:10:43 09:15:09 27° 295° (WNW) 09:19:33 437.470
PHONESAT 2.4 01 Jul 09:15:15 09:18:19 74° 183° (S) 09:21:23 2401.200-2431.200
DANDE 01 Jul 09:17:51 09:26:12 66° 282° (WNW) 09:33:41 436.750
CUBEBUG 2 01 Jul 09:19:18 09:22:17 17° 92° (E) 09:25:16 437.445
Cosmos 2499 01 Jul 09:25:43 09:26:52 10° 289° (WNW) 09:28:01 435.465 / 435.565
NOAA 15 01 Jul 09:30:43 09:33:15 14° 301° (WNW) 09:35:46 137.62
COMPASS 1 01 Jul 09:35:15 09:39:01 31° 96° (E) 09:42:43 437.405
STRAND 1 01 Jul 09:38:01 09:40:11 13° 271° (W) 09:42:22 437.568
Oscar 11 01 Jul 09:38:23 09:39:25 11° 89° (E) 09:40:26 145.826/435.025
CINEMA 3 01 Jul 09:40:46 09:45:24 87° 103° (ESE) 09:50:13 145.822/145.860
CANX-2 01 Jul 09:44:48 09:49:07 85° 283° (WNW) 09:53:22 2200.000
FUNcube-1 01 Jul 09:48:58 09:51:23 14° 90° (E) 09:53:47 145.935
AUBIESAT-1 01 Jul 09:55:19 09:57:25 14° 98° (E) 09:59:34 437.475
UWE-3 01 Jul 09:59:33 10:03:36 30° 96° (E) 10:07:41 435.000/436.395/437.385
BEESAT 3 01 Jul 10:00:09 10:01:12 11° 38° (NE) 10:02:15 437.485
SEEDS 01 Jul 10:02:42 10:06:58 85° 283° (WNW) 10:11:10 437.485
RS-15 01 Jul 10:03:50 10:07:54 12° 93° (E) 10:12:01 29.354- 29.394
CUTE 1.7 + AOD 2 01 Jul 10:04:17 10:08:30 58° 286° (WNW) 10:12:40 437.475
CUSAT 1 01 Jul 10:16:41 10:19:28 12° 295° (WNW) 10:22:03 437.405
DELFI C3 01 Jul 10:21:22 10:23:24 14° 91° (E) 10:25:25 145.870
HO-68 01 Jul 10:22:58 10:30:06 66° 291° (WNW) 10:37:12 435.675
PRISM 01 Jul 10:24:51 10:27:38 17° 266° (W) 10:30:27 437.425
TIGRISAT 01 Jul 10:25:15 10:28:56 28° 68° (ENE) 10:32:41 435.000
UNISAT 6 01 Jul 10:31:09 10:35:04 34° 69° (ENE) 10:39:03 437.425
AAUSAT CUBESAT 2 01 Jul 10:33:15 10:37:25 68° 284° (WNW) 10:41:31 437.432
M-CUBED/EXP-1 PRIME 01 Jul 10:35:45 10:39:37 46° 105° (ESE) 10:43:47 437.505
BEESAT 2 01 Jul 10:42:56 10:45:23 15° 42° (NE) 10:47:49 435.950
ISS 01 Jul 10:45:43 10:48:03 18° 345° (NNW) 10:50:23 145.825
PHONESAT 2.4 01 Jul 10:51:57 10:54:44 32° 201° (SSW) 10:57:32 2401.200-2431.200
CUBEBUG 2 01 Jul 10:54:38 10:59:08 51° 287° (WNW) 11:03:43 437.445
PCSat 01 Jul 10:57:18 11:02:23 38° 53° (NE) 11:07:24 145.827
Cosmos 2491 01 Jul 10:59:58 11:06:30 23° 64° (ENE) 11:12:58 435.465 / 435.565
DANDE 01 Jul 11:06:17 11:10:08 14° 299° (WNW) 11:13:48 436.750
ZACube-1 01 Jul 11:07:31 11:12:07 80° 283° (WNW) 11:16:42 437.345
ANTELSAT 01 Jul 11:10:20 11:14:40 89° 272° (W) 11:19:08 437.575/2403.000
COMPASS 1 01 Jul 11:11:11 11:14:23 22° 293° (WNW) 11:17:34 437.405
Oscar 11 01 Jul 11:11:39 11:15:59 67° 286° (WNW) 11:20:17 145.826/435.025
CINEMA 3 01 Jul 11:20:48 11:21:54 11° 298° (WNW) 11:23:01 145.822/145.860
FUNcube-1 01 Jul 11:23:29 11:27:56 57° 287° (WNW) 11:32:26 145.935
AUBIESAT-1 01 Jul 11:28:09 11:32:04 53° 291° (WNW) 11:36:15 437.475
BEESAT 3 01 Jul 11:35:34 11:39:33 80° 58° (ENE) 11:43:30 437.485
UWE-3 01 Jul 11:36:02 11:39:58 28° 291° (WNW) 11:43:56 435.000/436.395/437.385
NANOSAT C BR1 01 Jul 11:40:38 11:44:17 30° 69° (ENE) 11:47:58 145.865
O/OREOS (USA 219) 01 Jul 11:41:47 11:44:32 16° 54° (NE) 11:47:16 437.305
QB50P1 01 Jul 11:45:15 11:49:05 35° 71° (ENE) 11:52:55 145.935-145.965
POPSAT HIP 1 01 Jul 11:48:43 11:52:35 38° 71° (ENE) 11:56:30 437.405
HUMSAT D 01 Jul 11:53:56 11:58:17 77° 102° (ESE) 12:02:34 437.325/437.525
DELFI C3 01 Jul 11:54:41 11:58:30 44° 287° (WNW) 12:02:15 145.870
DUCHIFAT 1 01 Jul 11:59:18 12:03:16 45° 72° (ENE) 12:07:17 145.980
QB50P2 01 Jul 12:01:34 12:05:41 58° 74° (ENE) 12:09:50 145.880/145.840
TIGRISAT 01 Jul 12:01:57 12:05:35 26° 265° (W) 12:09:17 435.000
POLYITAN 1 01 Jul 12:04:12 12:08:18 60° 74° (ENE) 12:12:28 437.675
JAS-2 01 Jul 12:05:21 12:11:12 26° 63° (ENE) 12:16:37 435.910
RS-15 01 Jul 12:06:29 12:17:37 65° 114° (ESE) 12:29:23 29.354- 29.394
UNISAT 6 01 Jul 12:08:33 12:11:52 21° 267° (W) 12:15:15 437.425
M-CUBED/EXP-1 PRIME 01 Jul 12:11:23 12:13:53 16° 298° (WNW) 12:16:30 437.505
HO-68 01 Jul 12:13:20 12:16:28 13° 310° (NW) 12:19:36 435.675
BEESAT 2 01 Jul 12:19:39 12:23:37 62° 241° (WSW) 12:27:32 435.950
ISS 01 Jul 12:23:36 12:25:28 14° 6° (N) 12:27:19 145.825
AISAT 01 Jul 12:26:36 12:29:41 19° 93° (E) 12:32:47 437.250
ESTCUBE 1 01 Jul 12:34:33 12:38:43 36° 97° (E) 12:42:49 437.505/2401.250
DX 1 01 Jul 12:35:47 12:38:35 17° 93° (E) 12:41:23 434.975-435.025
YUBILEINY 01 Jul 12:40:02 12:47:49 38° 86° (E) 12:55:40 435.215
PCSat 01 Jul 12:40:54 12:45:39 31° 251° (WSW) 12:50:22 145.827
BUGSAT 1 01 Jul 12:42:14 12:46:11 62° 74° (ENE) 12:50:10 437.445
Cosmos 2491 01 Jul 12:55:36 13:04:19 79° 265° (W) 13:13:01 435.465 / 435.565
CUBEBUG 1 01 Jul 13:04:22 13:08:35 50° 100° (E) 13:12:48 437.445
NANOSAT C BR1 01 Jul 13:16:46 13:20:02 22° 265° (W) 13:23:20 145.865
50 SAT 01 Jul 13:19:27 13:23:10 82° 103° (ESE) 13:26:49 437.505
O/OREOS (USA 219) 01 Jul 13:19:54 13:24:19 58° 251° (WSW) 13:28:44 437.305
VELOX 1 01 Jul 13:20:43 13:25:07 69° 102° (ESE) 13:29:29 145.980
QB50P1 01 Jul 13:21:59 13:24:57 19° 267° (W) 13:27:58 145.935-145.965
POPSAT HIP 1 01 Jul 13:25:41 13:28:31 17° 267° (W) 13:31:22 437.405
AIST 2 01 Jul 13:27:52 13:31:46 38° 51° (NE) 13:35:39 435.215
HUMSAT D 01 Jul 13:32:20 13:33:15 11° 299° (WNW) 13:34:10 437.325/437.525
DUCHIFAT 1 01 Jul 13:36:52 13:39:12 15° 268° (W) 13:41:34 145.980
Oscar 19 01 Jul 13:39:07 13:43:57 43° 70° (ENE) 13:48:46 437.125/150
SPROUT 01 Jul 13:40:08 13:44:19 50° 100° (E) 13:48:29 437.525
QB50P2 01 Jul 13:40:22 13:41:51 12° 270° (W) 13:43:21 145.880/145.840
POLYITAN 1 01 Jul 13:43:10 13:44:30 11° 270° (W) 13:45:51 437.675
Cosmos 2504 01 Jul 13:44:40 13:51:34 31° 82° (E) 13:58:49 435.465 / 435.565
UKube-1 01 Jul 13:44:42 13:49:02 78° 102° (ESE) 13:53:21 .
AO-7 01 Jul 13:46:16 13:48:10 11° 41° (NE) 13:50:05 29.400- 29.500
JAS-2 01 Jul 13:48:16 13:55:48 65° 258° (WSW) 14:02:38 435.910
ISS 01 Jul 13:59:42 14:02:40 31° 25° (NNE) 14:05:37 145.825
AISAT 01 Jul 14:02:13 14:06:19 39° 289° (WNW) 14:10:25 437.250
DX 1 01 Jul 14:10:51 14:14:58 43° 289° (WNW) 14:19:04 434.975-435.025
ITAMSAT 1 01 Jul 14:11:07 14:13:52 15° 59° (ENE) 14:16:38 435.822/435.867
ESTCUBE 1 01 Jul 14:11:50 14:15:18 22° 294° (WNW) 14:18:44 437.505/2401.250
RS-15 01 Jul 14:19:49 14:30:43 45° 319° (NW) 14:42:14 29.354- 29.394
Gurwin Techsat 1B 01 Jul 14:21:23 14:26:26 47° 70° (ENE) 14:31:31 435.225
YUBILEINY 01 Jul 14:36:08 14:44:24 47° 285° (WNW) 14:52:48 435.215
CUBEBUG 1 01 Jul 14:41:56 14:44:27 15° 296° (WNW) 14:46:59 437.445
TISAT 1 01 Jul 14:48:34 14:52:47 73° 102° (ESE) 14:57:01 437.305
Cosmos 2491 01 Jul 14:55:27 14:59:37 14° 285° (WNW) 15:03:48 435.465 / 435.565
VELOX 1 01 Jul 14:59:17 15:01:00 12° 299° (WNW) 15:02:43 145.980
AIST 2 01 Jul 15:06:53 15:10:01 21° 248° (WSW) 15:13:07 435.215
SWISSCUBE 01 Jul 15:11:38 15:15:40 26° 95° (E) 15:19:38 437.505
SPROUT 01 Jul 15:17:21 15:19:50 15° 296° (WNW) 15:22:21 437.525
Oscar 19 01 Jul 15:19:23 15:23:25 23° 266° (W) 15:27:27 437.125/150
UKube-1 01 Jul 15:23:35 15:24:26 11° 300° (WNW) 15:25:18 .
AO-7 01 Jul 15:31:02 15:38:52 47° 62° (ENE) 15:46:44 29.400- 29.500
SO-50 01 Jul 15:31:18 15:35:48 37° 115° (ESE) 15:40:17 436.795
ISS 01 Jul 15:36:06 15:39:09 36° 222° (SW) 15:42:10 145.825
BEESAT 01 Jul 15:36:09 15:40:41 41° 98° (E) 15:45:12 436.000
Cosmos 2504 01 Jul 15:36:20 15:44:22 58° 283° (WNW) 15:53:00 435.465 / 435.565
ITUPSAT 1 01 Jul 15:39:22 15:43:58 44° 99° (E) 15:48:31 437.325
JAS-2 01 Jul 15:41:06 15:41:43 10° 274° (W) 15:42:20 435.910
ITAMSAT 1 01 Jul 15:47:26 15:52:39 78° 257° (WSW) 15:57:55 435.822/435.867
Gurwin Techsat 1B 01 Jul 16:02:32 16:06:36 22° 267° (W) 16:10:41 435.225
TISAT 1 01 Jul 16:26:50 16:27:51 11° 299° (WNW) 16:28:52 437.305
